Time,TemperatureF,DewpointF,PressureIn,WindDirection,WindDirectionDegrees,WindSpeedMPH,WindSpeedGustMPH,Humidity,HourlyPrecipIn,Conditions,Clouds,dailyrainin,SolarRadiationWatts/m^2,SoftwareType,DateUTC
2013-10-22 00:03:00,35.0,26.2,29.77,WNW,287,10.0,10.0,70,0.00,,,0.00,0,Wunderground v.1.15,2013-10-22 05:03:00,
2013-10-22 00:12:00,35.0,26.2,29.77,West,277,10.0,10.0,70,0.00,,,0.00,0,Wunderground v.1.15,2013-10-22 05:12:00,
2013-10-22 00:22:00,35.2,26.4,29.77,West,263,7.0,7.0,70,0.00,,,0.00,0,Wunderground v.1.15,2013-10-22 05:22:00,
2013-10-22 00:32:00,35.2,26.4,29.77,WSW,250,8.0,8.0,70,0.00,,,0.00,0,Wunderground v.1.15,2013-10-22 05:32:00,
2013-10-22 00:42:00,35.5,26.3,29.77,West,268,9.0,17.0,69,0.00,,,0.00,0,Wunderground v.1.15,2013-10-22 05:42:00,
2013-10-22 00:52:00,35.6,26.4,29.76,WSW,248,12.0,14.0,69,0.00,,,0.00,0,Wunderground v.1.15,2013-10-22 05:52:00,
2013-10-22 01:02:00,35.5,26.7,29.76,West,270,10.0,10.0,70,0.00,,,0.00,0,Wunderground v.1.15,2013-10-22 06:02:00,
2013-10-22 01:12:00,35.5,26.7,29.76,WSW,250,8.0,10.0,70,0.00,,,0.00,0,Wunderground v.1.15,2013-10-22 06:12:00,
2013-10-22 01:22:00,35.2,26.7,29.76,WSW,258,9.0,10.0,71,0.00,,,0.00,0,Wunderground v.1.15,2013-10-22 06:22:00,
2013-10-22 01:32:00,35.2,26.7,29.76,West,260,8.0,8.0,71,0.00,,,0.00,0,Wunderground v.1.15,2013-10-22 06:32:00,
2013-10-22 01:42:00,35.3,26.8,29.76,WSW,257,9.0,17.0,71,0.00,,,0.00,0,Wunderground v.1.15,2013-10-22 06:42:00,
2013-10-22 01:52:00,35.3,27.2,29.77,West,280,8.0,8.0,72,0.00,,,0.00,0,Wunderground v.1.15,2013-10-22 06:52:00,
2013-10-22 02:02:00,35.3,27.5,29.77,WNW,282,9.0,9.0,73,0.00,,,0.00,0,Wunderground v.1.15,2013-10-22 07:02:00,
2013-10-22 02:12:00,35.3,27.5,29.77,WSW,244,9.0,12.0,73,0.00,,,0.00,0,Wunderground v.1.15,2013-10-22 07:12:00,
2013-10-22 02:22:00,35.3,27.5,29.77,WNW,298,9.0,9.0,73,0.00,,,0.00,0,Wunderground v.1.15,2013-10-22 07:22:00,
2013-10-22 02:32:00,35.5,27.7,29.77,West,271,12.0,12.0,73,0.00,,,0.00,0,Wunderground v.1.15,2013-10-22 07:32:00,
2013-10-22 02:42:00,35.5,28.0,29.77,West,278,8.0,11.0,74,0.00,,,0.00,0,Wunderground v.1.15,2013-10-22 07:42:00,
2013-10-22 02:52:00,35.6,28.1,29.77,West,260,9.0,9.0,74,0.00,,,0.00,0,Wunderground v.1.15,2013-10-22 07:52:00,
2013-10-22 03:02:00,35.8,28.3,29.77,West,277,11.0,11.0,74,0.00,,,0.00,0,Wunderground v.1.15,2013-10-22 08:02:00,
2013-10-22 03:12:00,35.9,28.4,29.77,West,267,11.0,17.0,74,0.00,,,0.00,0,Wunderground v.1.15,2013-10-22 08:12:00,
2013-10-22 03:22:00,36.0,28.5,29.77,West,278,11.0,13.0,74,0.00,,,0.00,0,Wunderground v.1.15,2013-10-22 08:22:00,
2013-10-22 03:32:00,36.0,28.5,29.77,WNW,289,11.0,11.0,74,0.00,,,0.00,0,Wunderground v.1.15,2013-10-22 08:32:00,
2013-10-22 03:42:00,36.0,28.5,29.77,West,264,10.0,13.0,74,0.00,,,0.00,0,Wunderground v.1.15,2013-10-22 08:42:00,
2013-10-22 03:52:00,36.2,28.7,29.77,WSW,248,11.0,11.0,74,0.00,,,0.00,0,Wunderground v.1.15,2013-10-22 08:52:00,
2013-10-22 04:02:00,36.2,29.0,29.77,West,277,9.0,13.0,75,0.00,,,0.00,0,Wunderground v.1.15,2013-10-22 09:02:00,
2013-10-22 04:12:00,36.3,28.8,29.77,WNW,285,12.0,12.0,74,0.00,,,0.00,0,Wunderground v.1.15,2013-10-22 09:12:00,
2013-10-22 04:22:00,36.5,29.3,29.78,NW,309,10.0,10.0,75,0.00,,,0.00,0,Wunderground v.1.15,2013-10-22 09:22:00,
2013-10-22 04:32:00,36.5,29.3,29.78,WNW,302,12.0,12.0,75,0.00,,,0.00,0,Wunderground v.1.15,2013-10-22 09:32:00,
2013-10-22 04:42:00,36.3,29.5,29.78,West,274,9.0,9.0,76,0.00,,,0.00,0,Wunderground v.1.15,2013-10-22 09:42:00,
2013-10-22 04:52:00,36.3,29.8,29.78,WNW,285,8.0,10.0,77,0.00,,,0.00,0,Wunderground v.1.15,2013-10-22 09:52:00,
2013-10-22 05:12:00,36.8,30.6,29.78,WNW,296,10.0,10.0,78,0.00,,,0.00,0,Wunderground v.1.15,2013-10-22 10:12:00,
2013-10-22 05:22:00,36.9,30.7,29.78,WNW,285,9.0,9.0,78,0.00,,,0.00,0,Wunderground v.1.15,2013-10-22 10:22:00,
2013-10-22 05:32:00,37.3,30.7,29.79,West,272,11.0,11.0,77,0.00,,,0.00,0,Wunderground v.1.15,2013-10-22 10:32:00,
2013-10-22 05:42:00,37.3,31.1,29.79,NW,326,10.0,10.0,78,0.00,,,0.00,0,Wunderground v.1.15,2013-10-22 10:42:00,
2013-10-22 05:52:00,37.5,31.3,29.79,West,281,10.0,10.0,78,0.00,,,0.00,0,Wunderground v.1.15,2013-10-22 10:52:00,
2013-10-22 06:02:00,37.5,31.6,29.80,NW,316,9.0,9.0,79,0.00,,,0.00,0,Wunderground v.1.15,2013-10-22 11:02:00,
2013-10-22 06:12:00,37.5,31.6,29.80,WNW,292,9.0,12.0,79,0.00,,,0.00,0,Wunderground v.1.15,2013-10-22 11:12:00,
2013-10-22 06:22:00,37.5,31.6,29.81,NW,313,9.0,9.0,79,0.00,,,0.00,0,Wunderground v.1.15,2013-10-22 11:22:00,
2013-10-22 06:32:00,37.5,31.6,29.81,WNW,295,9.0,16.0,79,0.00,,,0.00,0,Wunderground v.1.15,2013-10-22 11:32:00,
2013-10-22 06:42:00,37.8,31.9,29.81,NW,325,7.0,7.0,79,0.00,,,0.00,0,Wunderground v.1.15,2013-10-22 11:42:00,
2013-10-22 06:52:00,37.8,32.2,29.82,WSW,258,8.0,8.0,80,0.00,,,0.00,0,Wunderground v.1.15,2013-10-22 11:52:00,
2013-10-22 07:02:00,37.3,31.7,29.82,WNW,284,8.0,8.0,80,0.00,,,0.00,0,Wunderground v.1.15,2013-10-22 12:02:00,
2013-10-22 07:12:00,37.2,31.9,29.82,NW,313,6.0,6.0,81,0.00,,,0.00,0,Wunderground v.1.15,2013-10-22 12:12:00,
2013-10-22 07:22:00,37.2,31.9,29.83,NNW,337,6.0,6.0,81,0.00,,,0.00,0,Wunderground v.1.15,2013-10-22 12:22:00,
2013-10-22 07:32:00,37.3,32.0,29.83,NW,312,7.0,8.0,81,0.00,,,0.00,11,Wunderground v.1.15,2013-10-22 12:32:00,
2013-10-22 07:42:00,37.6,32.0,29.83,WNW,299,8.0,8.0,80,0.00,,,0.00,26,Wunderground v.1.15,2013-10-22 12:42:00,
2013-10-22 07:52:00,37.8,31.9,29.84,NW,320,7.0,7.0,79,0.00,,,0.00,26,Wunderground v.1.15,2013-10-22 12:52:00,
2013-10-22 08:02:00,37.9,32.3,29.84,NW,309,7.0,7.0,80,0.00,,,0.00,77,Wunderground v.1.15,2013-10-22 13:02:00,
2013-10-22 08:12:00,38.3,32.4,29.84,WNW,289,8.0,8.0,79,0.00,,,0.00,28,Wunderground v.1.15,2013-10-22 13:12:00,
2013-10-22 08:22:00,38.6,32.6,29.85,NNW,329,6.0,6.0,79,0.00,,,0.00,56,Wunderground v.1.15,2013-10-22 13:22:00,
2013-10-22 08:32:00,38.9,32.6,29.86,NW,322,7.0,10.0,78,0.00,,,0.00,172,Wunderground v.1.15,2013-10-22 13:32:00,
2013-10-22 08:42:00,39.1,32.8,29.86,NW,309,8.0,8.0,78,0.00,,,0.00,188,Wunderground v.1.15,2013-10-22 13:42:00,
2013-10-22 08:52:00,39.3,32.4,29.86,NW,313,9.0,12.0,76,0.00,,,0.00,188,Wunderground v.1.15,2013-10-22 13:52:00,
2013-10-22 09:02:00,39.5,32.2,29.86,NNW,340,9.0,9.0,75,0.00,,,0.00,264,Wunderground v.1.15,2013-10-22 14:02:00,
2013-10-22 09:12:00,39.5,32.2,29.86,NW,318,11.0,11.0,75,0.00,,,0.00,259,Wunderground v.1.15,2013-10-22 14:12:00,
2013-10-22 09:22:00,39.8,32.5,29.86,NW,323,9.0,12.0,75,0.00,,,0.00,255,Wunderground v.1.15,2013-10-22 14:22:00,
2013-10-22 09:32:00,40.1,33.1,29.86,North,354,9.0,9.0,76,0.00,,,0.00,304,Wunderground v.1.15,2013-10-22 14:32:00,
2013-10-22 09:42:00,40.5,32.9,29.86,North,352,9.0,9.0,74,0.00,,,0.00,315,Wunderground v.1.15,2013-10-22 14:42:00,
2013-10-22 09:52:00,40.6,33.0,29.86,NW,318,9.0,9.0,74,0.00,,,0.00,355,Wunderground v.1.15,2013-10-22 14:52:00,
2013-10-22 10:02:00,40.8,33.2,29.86,NNW,343,10.0,10.0,74,0.00,,,0.00,366,Wunderground v.1.15,2013-10-22 15:02:00,
2013-10-22 10:12:00,41.2,32.9,29.86,WNW,288,8.0,12.0,72,0.00,,,0.00,382,Wunderground v.1.15,2013-10-22 15:12:00,
2013-10-22 10:22:00,41.5,32.8,29.86,NNW,340,9.0,9.0,71,0.00,,,0.00,472,Wunderground v.1.15,2013-10-22 15:22:00,
2013-10-22 10:32:00,42.1,33.4,29.87,NNW,347,10.0,10.0,71,0.00,,,0.00,493,Wunderground v.1.15,2013-10-22 15:32:00,
2013-10-22 10:42:00,42.3,32.8,29.87,NNW,333,8.0,13.0,69,0.00,,,0.00,449,Wunderground v.1.15,2013-10-22 15:42:00,
2013-10-22 10:52:00,42.8,33.0,29.87,North,354,8.0,11.0,68,0.00,,,0.00,479,Wunderground v.1.15,2013-10-22 15:52:00,
2013-10-22 11:02:00,42.8,33.0,29.87,NW,308,8.0,16.0,68,0.00,,,0.00,479,Wunderground v.1.15,2013-10-22 16:02:00,
2013-10-22 11:12:00,42.9,31.9,29.87,North,357,9.0,11.0,65,0.00,,,0.00,514,Wunderground v.1.15,2013-10-22 16:12:00,
2013-10-22 11:22:00,43.3,32.3,29.87,North,7,9.0,9.0,65,0.00,,,0.00,503,Wunderground v.1.15,2013-10-22 16:22:00,
2013-10-22 11:32:00,43.5,31.7,29.87,NNW,342,10.0,11.0,63,0.00,,,0.00,531,Wunderground v.1.15,2013-10-22 16:32:00,
2013-10-22 11:42:00,43.3,30.7,29.87,NW,322,9.0,10.0,61,0.00,,,0.00,535,Wunderground v.1.15,2013-10-22 16:42:00,
2013-10-22 11:52:00,43.5,30.9,29.87,NNW,336,10.0,10.0,61,0.00,,,0.00,574,Wunderground v.1.15,2013-10-22 16:52:00,
2013-10-22 12:02:00,44.8,32.2,29.86,NNW,328,7.0,7.0,61,0.00,,,0.00,565,Wunderground v.1.15,2013-10-22 17:02:00,
2013-10-22 12:12:00,45.4,31.9,29.86,North,0,7.0,10.0,59,0.00,,,0.00,598,Wunderground v.1.15,2013-10-22 17:12:00,
2013-10-22 12:22:00,44.9,30.6,29.86,NNE,13,10.0,10.0,57,0.00,,,0.00,581,Wunderground v.1.15,2013-10-22 17:22:00,
2013-10-22 12:32:00,44.6,30.7,29.86,NNW,339,10.0,10.0,58,0.00,,,0.00,609,Wunderground v.1.15,2013-10-22 17:32:00,
2013-10-22 12:42:00,44.5,31.1,29.86,WNW,285,8.0,11.0,59,0.00,,,0.00,609,Wunderground v.1.15,2013-10-22 17:42:00,
2013-10-22 12:52:00,44.5,30.2,29.86,NNW,343,10.0,10.0,57,0.00,,,0.00,609,Wunderground v.1.15,2013-10-22 17:52:00,
2013-10-22 13:02:00,44.6,31.1,29.86,NNW,332,8.0,8.0,59,0.00,,,0.00,171,Wunderground v.1.15,2013-10-22 18:02:00,
2013-10-22 13:12:00,45.1,31.2,29.86,NNW,333,7.0,13.0,58,0.00,,,0.00,665,Wunderground v.1.15,2013-10-22 18:12:00,
2013-10-22 13:22:00,43.9,30.1,29.85,NW,322,7.0,10.0,58,0.00,,,0.00,114,Wunderground v.1.15,2013-10-22 18:22:00,
2013-10-22 13:32:00,44.1,29.4,29.86,NNW,337,8.0,8.0,56,0.00,,,0.00,199,Wunderground v.1.15,2013-10-22 18:32:00,
2013-10-22 13:42:00,44.1,30.3,29.86,NNW,328,5.0,6.0,58,0.00,,,0.00,201,Wunderground v.1.15,2013-10-22 18:42:00,
2013-10-22 13:52:00,43.9,30.5,29.85,North,352,5.0,6.0,59,0.00,,,0.00,192,Wunderground v.1.15,2013-10-22 18:52:00,
2013-10-22 14:02:00,45.1,29.9,29.85,North,3,7.0,7.0,55,0.00,,,0.00,113,Wunderground v.1.15,2013-10-22 19:02:00,
2013-10-22 14:12:00,44.1,29.4,29.85,NNW,343,6.0,6.0,56,0.00,,,0.00,121,Wunderground v.1.15,2013-10-22 19:12:00,
2013-10-22 14:22:00,44.1,30.3,29.85,NW,315,4.0,4.0,58,0.00,,,0.00,188,Wunderground v.1.15,2013-10-22 19:22:00,
2013-10-22 14:32:00,44.3,29.6,29.85,North,0,6.0,6.0,56,0.00,,,0.00,97,Wunderground v.1.15,2013-10-22 19:32:00,
2013-10-22 14:42:00,44.1,29.8,29.85,North,349,5.0,5.0,57,0.00,,,0.00,65,Wunderground v.1.15,2013-10-22 19:42:00,
2013-10-22 14:52:00,43.8,29.5,29.85,NNW,337,5.0,5.0,57,0.00,,,0.00,72,Wunderground v.1.15,2013-10-22 19:52:00,
2013-10-22 15:12:00,44.5,28.9,29.85,NW,326,6.0,6.0,54,0.00,,,0.00,118,Wunderground v.1.15,2013-10-22 20:12:00,
2013-10-22 15:22:00,44.2,29.5,29.85,NW,322,3.0,3.0,56,0.00,,,0.00,81,Wunderground v.1.15,2013-10-22 20:22:00,
2013-10-22 15:32:00,43.9,29.2,29.86,NW,306,5.0,7.0,56,0.00,,,0.00,76,Wunderground v.1.15,2013-10-22 20:32:00,
2013-10-22 15:42:00,43.8,28.7,29.86,NNW,328,4.0,5.0,55,0.00,,,0.00,81,Wunderground v.1.15,2013-10-22 20:42:00,
2013-10-22 15:52:00,43.8,29.1,29.86,NW,311,3.0,3.0,56,0.00,,,0.00,97,Wunderground v.1.15,2013-10-22 20:52:00,
2013-10-22 16:02:00,43.9,29.2,29.86,NW,313,4.0,4.0,56,0.00,,,0.00,95,Wunderground v.1.15,2013-10-22 21:02:00,
2013-10-22 16:12:00,43.8,29.5,29.86,NW,319,4.0,4.0,57,0.00,,,0.00,76,Wunderground v.1.15,2013-10-22 21:12:00,
2013-10-22 16:22:00,43.8,29.1,29.87,NW,308,4.0,4.0,56,0.00,,,0.00,76,Wunderground v.1.15,2013-10-22 21:22:00,
2013-10-22 16:32:00,43.6,29.4,29.87,NW,322,4.0,5.0,57,0.00,,,0.00,83,Wunderground v.1.15,2013-10-22 21:32:00,
2013-10-22 16:42:00,43.6,29.8,29.87,NW,305,4.0,6.0,58,0.00,,,0.00,74,Wunderground v.1.15,2013-10-22 21:42:00,
2013-10-22 16:52:00,43.5,29.3,29.87,WNW,287,5.0,6.0,57,0.00,,,0.00,58,Wunderground v.1.15,2013-10-22 21:52:00,
2013-10-22 17:02:00,43.2,29.0,29.88,WNW,282,5.0,9.0,57,0.00,,,0.00,40,Wunderground v.1.15,2013-10-22 22:02:00,
2013-10-22 17:12:00,43.1,28.9,29.88,NW,311,6.0,10.0,57,0.00,,,0.00,32,Wunderground v.1.15,2013-10-22 22:12:00,
2013-10-22 17:22:00,42.9,28.7,29.88,NW,304,5.0,5.0,57,0.00,,,0.00,25,Wunderground v.1.15,2013-10-22 22:22:00,
2013-10-22 17:32:00,42.8,28.6,29.88,NW,319,4.0,6.0,57,0.00,,,0.00,12,Wunderground v.1.15,2013-10-22 22:32:00,
2013-10-22 17:42:00,42.5,28.8,29.88,NW,313,4.0,4.0,58,0.00,,,0.00,7,Wunderground v.1.15,2013-10-22 22:42:00,
2013-10-22 17:52:00,42.3,29.4,29.88,North,354,1.0,2.0,60,0.00,,,0.00,0,Wunderground v.1.15,2013-10-22 22:52:00,
2013-10-22 18:02:00,42.2,28.9,29.88,North,354,2.0,2.0,59,0.00,,,0.00,0,Wunderground v.1.15,2013-10-22 23:02:00,
2013-10-22 18:12:00,42.3,29.4,29.88,NNW,328,4.0,4.0,60,0.00,,,0.00,0,Wunderground v.1.15,2013-10-22 23:12:00,
2013-10-22 18:22:00,42.5,29.2,29.88,North,354,4.0,4.0,59,0.00,,,0.00,0,Wunderground v.1.15,2013-10-22 23:22:00,
2013-10-22 18:32:00,42.5,29.6,29.89,North,354,5.0,10.0,60,0.00,,,0.00,0,Wunderground v.1.15,2013-10-22 23:32:00,
2013-10-22 18:42:00,42.2,29.3,29.89,North,10,5.0,7.0,60,0.00,,,0.00,0,Wunderground v.1.15,2013-10-22 23:42:00,
2013-10-22 18:52:00,41.8,30.9,29.89,North,6,7.0,12.0,65,0.00,,,0.00,0,Wunderground v.1.15,2013-10-22 23:52:00,
2013-10-22 19:02:00,41.1,32.1,29.89,North,11,8.0,8.0,70,0.00,,,0.00,0,Wunderground v.1.15,2013-10-23 00:02:00,
2013-10-22 19:12:00,40.6,31.9,29.89,North,357,6.0,7.0,71,0.00,,,0.00,0,Wunderground v.1.15,2013-10-23 00:12:00,
2013-10-22 19:22:00,39.9,31.6,29.90,North,0,6.0,6.0,72,0.00,,,0.00,0,Wunderground v.1.15,2013-10-23 00:22:00,
2013-10-22 19:32:00,39.5,32.2,29.90,North,354,6.0,6.0,75,0.00,,,0.00,0,Wunderground v.1.15,2013-10-23 00:32:00,
2013-10-22 19:42:00,39.1,32.5,29.90,North,350,6.0,11.0,77,0.00,,,0.00,0,Wunderground v.1.15,2013-10-23 00:42:00,
2013-10-22 19:52:00,38.6,32.6,29.91,North,349,9.0,9.0,79,0.00,,,0.00,0,Wunderground v.1.15,2013-10-23 00:52:00,
2013-10-22 20:02:00,37.9,32.3,29.92,North,0,7.0,7.0,80,0.00,,,0.00,0,Wunderground v.1.15,2013-10-23 01:02:00,
2013-10-22 20:12:00,37.3,31.7,29.92,NNE,18,4.0,6.0,80,0.00,,,0.00,0,Wunderground v.1.15,2013-10-23 01:12:00,
2013-10-22 20:22:00,37.0,31.4,29.91,North,1,5.0,5.0,80,0.00,,,0.00,0,Wunderground v.1.15,2013-10-23 01:22:00,
2013-10-22 20:32:00,36.6,30.7,29.91,North,7,4.0,5.0,79,0.00,,,0.00,0,Wunderground v.1.15,2013-10-23 01:32:00,
2013-10-22 20:42:00,36.5,30.6,29.91,North,10,3.0,3.0,79,0.00,,,0.00,0,Wunderground v.1.15,2013-10-23 01:42:00,
2013-10-22 20:52:00,36.3,30.7,29.91,North,10,2.0,2.0,80,0.00,,,0.00,0,Wunderground v.1.15,2013-10-23 01:52:00,
2013-10-22 21:02:00,36.5,30.9,29.92,North,10,1.0,3.0,80,0.00,,,0.00,0,Wunderground v.1.15,2013-10-23 02:02:00,
2013-10-22 21:12:00,36.9,31.0,29.92,NNE,14,3.0,3.0,79,0.00,,,0.00,0,Wunderground v.1.15,2013-10-23 02:12:00,
2013-10-22 21:22:00,37.8,30.6,29.92,NNE,31,5.0,5.0,75,0.00,,,0.00,0,Wunderground v.1.15,2013-10-23 02:22:00,
2013-10-22 21:32:00,38.2,30.0,29.92,North,0,6.0,6.0,72,0.00,,,0.00,0,Wunderground v.1.15,2013-10-23 02:32:00,
2013-10-22 21:42:00,38.3,29.7,29.92,North,8,7.0,7.0,71,0.00,,,0.00,0,Wunderground v.1.15,2013-10-23 02:42:00,
2013-10-22 21:52:00,38.2,29.6,29.92,NNE,25,5.0,5.0,71,0.00,,,0.00,0,Wunderground v.1.15,2013-10-23 02:52:00,
2013-10-22 22:02:00,38.3,28.7,29.92,NE,35,6.0,6.0,68,0.00,,,0.00,0,Wunderground v.1.15,2013-10-23 03:02:00,
2013-10-22 22:12:00,38.3,28.7,29.92,NNW,340,6.0,6.0,68,0.00,,,0.00,0,Wunderground v.1.15,2013-10-23 03:12:00,
2013-10-22 22:22:00,38.3,28.7,29.92,NNW,336,7.0,7.0,68,0.00,,,0.00,0,Wunderground v.1.15,2013-10-23 03:22:00,
2013-10-22 22:32:00,37.9,28.3,29.92,NNW,346,6.0,6.0,68,0.00,,,0.00,0,Wunderground v.1.15,2013-10-23 03:32:00,
2013-10-22 22:42:00,37.3,28.1,29.92,North,0,7.0,7.0,69,0.00,,,0.00,0,Wunderground v.1.15,2013-10-23 03:42:00,
2013-10-22 22:52:00,36.8,27.9,29.92,North,0,5.0,5.0,70,0.00,,,0.00,0,Wunderground v.1.15,2013-10-23 03:52:00,
2013-10-22 23:12:00,36.0,27.8,29.92,North,0,3.0,3.0,72,0.00,,,0.00,0,Wunderground v.1.15,2013-10-23 04:12:00,
2013-10-22 23:22:00,35.6,27.5,29.91,North,0,3.0,3.0,72,0.00,,,0.00,0,Wunderground v.1.15,2013-10-23 04:22:00,
2013-10-22 23:32:00,35.3,27.2,29.91,North,0,2.0,2.0,72,0.00,,,0.00,0,Wunderground v.1.15,2013-10-23 04:32:00,
2013-10-22 23:42:00,35.0,26.9,29.91,North,359,3.0,3.0,72,0.00,,,0.00,0,Wunderground v.1.15,2013-10-23 04:42:00,
2013-10-22 23:52:00,34.9,26.4,29.91,North,357,2.0,2.0,71,0.00,,,0.00,0,Wunderground v.1.15,2013-10-23 04:52:00,